Regional Weather Roundup
Issued by NWS Wakefield, VA

Home | Current Version | Previous Version | Text Only | Print | Product List | Glossary Off
Versions: 1 2 3 4 5 6 7 8 9 10 11 12 13 14 15 16 17 18 19 20 21 22 23 24 25 26 27 28 29 30 31 32 33 34 35 36 37 38 39 40 41 42 43 44 45 46 47 48 49 50

000
ASUS41 KAKQ 022310
RWRAKQ

REGIONAL WEATHER ROUNDUP
NATIONAL WEATHER SERVICE WAKEFIELD VA
600 PM EST MON MAR 02 2015

Note: "fair" indicates few or no clouds below 12,000 feet with no
significant weather and/or obstructions to visibility. * = Denotes
station may not report precipitation (e.g., rain,snow,etc.),
thunder or fog.

VAZ042-051-052>054-056-030000-
NORTHERN VIRGINIA

CITY           SKY/WX    TMP DP  RH WIND       PRES   REMARKS
WASH NATIONAL  PTCLDY    41  16  36 N16       30.36R
DULLES         PTCLDY    38  15  39 N13       30.35R
FORT BELVOIR   CLEAR     41  15  34 VRB3      30.35R
QUANTICO       CLEAR     41  14  33 N6        30.36R
FREDERICKSBRG* CLEAR     44  17  33 N8        30.32R
STAFFORD*      CLEAR     39  14  36 N10       30.38R
WARRENTON      CLEAR     40  24  52 N7        30.33R
CULPEPER*      CLEAR     41  16  36 NE5       30.34R
MANASSAS*      NOT AVBL
LEESBURG*      CLEAR     37  19  48 N9        30.36R
WINCHESTER     CLEAR     36  14  41 NW8G14    30.34R
FRONT ROYAL*   FAIR      37  16  41 NW5       30.33R
LURAY*         FAIR      41  18  38 NW9G18    30.31R
$$

VAZ048-049-060>072-079>083-030000-
CENTRAL AND SOUTH CENTRAL VIRGINIA

CITY           SKY/WX    TMP DP  RH WIND       PRES   REMARKS
RICHMOND       CLOUDY    45  21  38 NE7       30.31R
CHESTERFIELD*  FAIR      48  21  34 NE9       30.31R
PETERSBURG*    PTCLDY    47  32  55 E7        30.29R
HANOVER        PTCLDY    44  21  40 NE3       30.33R
TAPPAHANNOCK*  PTCLDY    42  12  29 N5        30.33R
QUINTON*       FAIR      44  20  38 NW5       30.30R
CHARLOTTSVILLE PTCLDY    45  12  26 N5        30.30R
GORDONSVILLE*  FAIR      42  17  35 NE3       30.31R
ORANGE*        PTCLDY    41  19  42 N3        30.33R
LOUISA*        PTCLDY    45  16  31 N6        30.29R
BUMPASS*       FAIR      44  17  33 CALM      30.31R
FARMVILLE*     MOCLDY    51  17  26 NE5       30.27R
CREWE*         FAIR      51  15  24 CALM      30.27R
FORT PICKETT*  FAIR      48  29  48 CALM      30.28R
CHASE CITY*    FAIR      52  28  39 CALM      30.27R
CLARKSVILLE*   FAIR      52  30  43 NW3       30.26R
SOUTH HILL*    CLOUDY    48  38  69 CALM      30.34R
LAWRENCEVILLE* CLOUDY    46  37  70 CALM      30.28R
EMPORIA*       MOCLDY    41  37  87 CALM      30.30R
$$

VAZ088>098-030000-
SOUTHEAST VIRGINIA

CITY           SKY/WX    TMP DP  RH WIND       PRES   REMARKS
NORFOLK        MOCLDY    37  25  61 NE8       30.32R
VIRGINIA BEACH MOCLDY    40  26  57 NE6       30.32R
NORFOLK NAVAL  MOCLDY    40  24  53 NE9       30.33R
WEST POINT*    PTCLDY    46  14  28 N3        30.33R
SALUDA*        FAIR      40  20  45 N5        30.32R
NEWPORT NEWS   MOCLDY    40  27  59 E5        30.32R
LANGLEY AFB    MOCLDY    36  28  72 E8        30.31R
FORT EUSTIS    MOCLDY    43  29  58 S7        30.30R
WILLIAMSBURG*  MOCLDY    45  28  53 CALM      30.32R
HR EXEC AP*    FAIR      39  25  56 NE9       30.34R
FRANKLIN*      MOCLDY    44  34  69 NE7       30.31R
WAKEFIELD      PTCLDY    44  32  62 CALM      30.30R
$$

VAZ020-022-025-037-045-030000-
WEST CENTRAL AND SOUTHWEST VIRGINIA

CITY           SKY/WX    TMP DP  RH WIND       PRES   REMARKS
STAUNTON*      PTCLDY    39  18  43 NE6       30.31R
WAYNESBORO*    FAIR      39  15  37 NE7       30.29R
HOT SPRINGS VA PTCLDY    32  10  39 NW6       30.20R
LYNCHBURG      PTCLDY    47  16  29 CALM      30.29R
DANVILLE       PTCLDY    51  25  36 N6        30.28R
SOUTH BOSTON*  FAIR      50  21  31 NW7       30.28R
MARTINSVILLE   PTCLDY    49  14  24 N6        30.30S
ROANOKE        PTCLDY    44  13  28 W12       30.32R
BLACKSBURG     CLEAR     38  14  36 W5        30.32R
DUBLIN*        CLEAR     41  19  41 N3        30.30R
MARION*        MOCLDY    40  22  47 W9        30.31R
HILLSVILLE*    PTCLDY    41  22  47 W6        30.27R
RICHLANDS*     FAIR      36  19  48 NW6       30.30S
WISE*          MOCLDY    37  21  52 N6        30.30F
ABINGDON*      PTCLDY    43  24  47 CALM      30.31S
$$

MDZ021>025-VAZ099-100-030000-
SOUTHERN MARYLAND AND THE DELMARVA PENINSULA

CITY           SKY/WX    TMP DP  RH WIND       PRES   REMARKS
PATUXENT RIVER PTCLDY    39  18  42 N10       30.33R
BAY BRIDGE APT   N/A     36  16  44 NW14      30.33R
LEONARDTOWN    CLEAR     37  16  41 CALM      30.34R
DOVER          CLEAR     36  18  47 NW10      30.31R
GEORGETOWN     CLEAR     38  15  39 VRB3      30.31R
EASTON         PTCLDY    37  19  48 NW7       30.36R
CAMBRIDGE      CLEAR     37  18  44 NW6       30.32R
SALISBURY      CLEAR     39  21  48 NW8       30.31R
OCEAN CITY     CLEAR     37  15  40 N10       30.30R
WALLOPS ISLAND CLEAR     38  16  40 NW9       30.32R
ACCOMACK*      CLEAR     37  19  48 N8        30.32R
$$

NCZ012>017-030>032-030000-
NORTH CENTRAL AND EASTERN NORTH CAROLINA

CITY           SKY/WX    TMP DP  RH WIND       PRES   REMARKS
ROANOKE RAPIDS FAIR      48  37  66 NE3       30.29R
RALEIGH        MOCLDY    54  25  32 NE7       30.27R
ELIZABETH CITY MOCLDY    41  31  67 E7        30.31R
AHOSKIE*       MOCLDY    47  37  66 CALM      30.30R
EDENTON*       MOCLDY    42  36  77 SE9       30.30R
CURRITUCK*     MOCLDY    42  29  59 NE10      30.31R
KILL DEVIL HLS MOCLDY    38  34  87 NE5       30.30R
MANTEO         MOCLDY    39  32  75 N9        30.31R
CAPE HATTERAS  PTCLDY    40  34  79 NE8       30.31R
TARBORO*       FAIR      53  42  67 NE6       30.29R
GOLDSBORO      CLEAR     59  44  57 N1        30.23R
WASHINGTON     PTCLDY    50  40  68 E8        30.28R
GREENVILLE     CLEAR     52  43  71 E5        30.28R
NEW BERN       CLEAR     49  38  65 E10       30.28R
WILMINGTON     CLEAR     57  48  72 SE5       30.24R
$$

VAZ048-030000-
ELSEWHERE

CITY           SKY/WX    TMP DP  RH WIND       PRES   REMARKS
HARRISBURG PA  PTCLDY    32  14  47 NW20      30.33R WCI  20
BALTIMORE      PTCLDY    37  14  38 NW10G21   30.33R
ANNAPOLIS      CLEAR     38  15  39 NW12      30.33R
ANDREWS AFB    CLEAR     38  16  41 NW10      30.33R
PHILADELPHIA   PTCLDY    38  12  34 W16       30.29R
HENDERSON NC   CLEAR     51  21  31 CALM      30.27R
GREENSBORO     MOCLDY    55  27  34 NE8       30.25R
ROCKY MOUNT    PTCLDY    56  34  43 NW3       30.26R
$$

VAZ100-030000-
MARINE

STATION/POSITION TIME  TEMP    WIND        PRES    WAVE   SWELL
                       AIR SEA DIR/SP/G            HT/PER HT/PER
                 (UTC) (F)     (DEG/KT/KT) (MB)    (FT/S) (FT/S)
BRANDYWINE LGT   2300   35 30  320/ 12/ 15 1025.8R
CAPE MAY NJ      2300   34 35  250/  2/  8 1025.4R
LEWES DE         2300   34 30  320/ 10/ 12 1025.8R
15NM E FENWICK I 2300   35 34              1025.3R   3/ 4
OCEAN-CITY-INLET 2300   39 33  340/ 11/ 14 1025.4R
WACHAPREAGUE VA  2300   39 37  360/  6/ 10 1026.5R
THOMAS POINT MD  2300   39 33  330/ 14/ 15 1027.9R
COVE POINT MD    2300   37     350/ 14/ 15 1026.6R
SOLOMONS ISLAND  2300      33                N/A
BISHOPS HEAD MD  2300   39 34  340/ 11/ 16 1026.4R
CAMBRIDGE MD     2300   38 32  300/  6/  9 1026.8R
LEWISETTA VA     2300   41 34  330/  4/  7 1026.7R
RAPPAHANNOCK LGT 2300          350/ 13/ 15 1026.8S
STINGRAY PT      2300   35 32   30/  8/ 10   N/A     1/ 2
YORK RVR RNG VA  2300   37      50/ 14/ 14 1025.8R
YORKTOWN VA      2300   38 34   90/  8/  8 1026.2R
DOMINION TERM VA 2300   38     350/  1/  4 1026.6R
KIPTOPEKE VA     2300      39   40/  6/ 10   N/A
CHES BAY BRIDGE  2300   37 33   50/  4/  5 1026.2R
CAPE HENRY VA    2300   38      30/  3/  5 1025.3R
CHESAPEAKE LGHT  2200   40     360/ 11/ 12 1026.4R
WILLOUBY STN VA  2300   36      30/ 12/ 13 1027.0R
S CRANEY ISL VA  2300           50/  8/ 10 1026.7R
CAPE HENRY BUOY  2300      35                N/A     2/ 8
1ST LANDING BUOY 2300   37 33   30/  4/  6 1026.2R   1/ 3
OFFSHORE WE BUOY 2300      37                N/A     2/ 7   2/ 7
64NM E OF VA BCH 2300   45 53  360/ 19/ 23 1025.2R   5/ 5
DUCK PIER NC     2300   38 35   20/ 11/ 13 1025.3R
44100 DUCK FRF   2200      37                N/A     2/ 8
44056 DUCK FRF   2300      35                N/A     2/ 6
OREGON INLET NC  2300   38 43  360/  8/ 11 1025.9R
HATTERAS NC      2300   41 44   30/  9/ 16 1026.3R
CAPE LOOKOUT NC  2300   46      50/ 23/ 26 1025.3R
$$


USA.gov is the U.S. government's official web portal to all federal, state and local government web resources and services.